Regional Weather Roundup
Issued by NWS Northern Indiana

Home | Current Version | Previous Version | Graphics & Text | Print | Product List | Glossary On
Versions: 1 2 3 4 5 6 7 8 9 10 11 12 13 14 15 16 17 18 19 20 21 22 23 24 25 26 27 28 29 30 31 32 33 34 35 36 37 38 39 40 41 42 43 44 45 46 47 48 49 50
000
ASUS43 KIWX 042210
RWRIWX

KIWX WEATHER ROUNDUP
NATIONAL WEATHER SERVICE NORTHERN INDIANA
600 PM EDT TUE AUG 04 2015

NOTE: "FAIR" INDICATES FEW OR NO CLOUDS BELOW 12,000 FEET WITH NO
SIGNIFICANT WEATHER AND/OR OBSTRUCTIONS TO VISIBILITY.

* THESE STATIONS ARE NOT UNDER NWS QUALITY CONTROL. THEY ALSO MAY NOT
  REPORT WEATHER SUCH AS PRECIPITATION OR FOG.

INZ001>027-042300-
NORTHERN INDIANA

CITY           SKY/WX    TMP DP  RH WIND       PRES   REMARKS
GARY*          PTSUNNY   81  57  44 NE6       29.96F
VALPARAISO     CLOUDY    80  57  45 N6        29.97F
MICHIGAN CITY* PTSUNNY   75  50  41 N3        29.98S
LAPORTE*       PTSUNNY   79  55  43 N6        29.98S
KNOX*          CLOUDY    77  55  47 W9        29.96F
SOUTH BEND     MOSUNNY   79  53  40 NW7       29.98S
ELKHART*       MOSUNNY   79  50  36 W10G16    29.99R
GOSHEN         MOSUNNY   76  56  49 W8        29.98R
MONTICELLO*    PTSUNNY   78  61  55 W8        29.98S
LOGANSPORT*    CLOUDY    77  52  41 W5        29.99S
ROCHESTER*     PTSUNNY   81  55  41 NW9       29.98F
WARSAW*        PTSUNNY   77  59  53 NW8       29.98F
ANGOLA*        MOSUNNY   77  55  47 NW9       29.98R
FORT WAYNE     PTSUNNY   79  58  48 W14       29.98S
HUNTINGTON*    PTSUNNY   76  57  50 W7        29.98S
PERU/GRISSOM   CLOUDY    78  58  50 W8        29.98S
MARION*        PTSUNNY   76  58  53 W10       30.00S

$$
INZ028>050-042300-
CENTRAL INDIANA

CITY           SKY/WX    TMP DP  RH WIND       PRES   REMARKS
LAFAYETTE      MOSUNNY   80  58  46 NW10      29.98F
KOKOMO*        PTSUNNY   79  59  50 NW12      29.99F
MUNCIE*        PTSUNNY   77  60  55 W12       29.99S
INDIANAPOLIS   PTSUNNY   81  57  43 W14       29.99S

$$
MIZ043>046-050>051-056>058-064>065-071>073-077>080-042300-
SOUTHWEST LOWER MICHIGAN

CITY           SKY/WX    TMP DP  RH WIND       PRES   REMARKS
BATTLE CREEK   MOSUNNY   79  57  46 W12       29.97S
BENTON HARBOR  MOSUNNY   76  55  48 W9        29.97S
COLDWATER*     MOSUNNY   76  51  40 W12       29.97R
HILLSDALE*     MOSUNNY   77  55  46 NW9       29.98R
HOLLAND        SUNNY     75  56  51 NW8       29.98R
GRAND RAPIDS   PTSUNNY   76  51  41 W17       29.96R
KALAMAZOO      PTSUNNY   78  53  41 NW10      29.97R
STURGIS*       MOSUNNY   77  54  44 W12       29.98R
THREE RIVERS*  FAIR      78  52  41 W12       29.98R

$$
OHZ001>008-015>018-024>025-042300-
NORTHWEST OHIO

CITY           SKY/WX    TMP DP  RH WIND       PRES   REMARKS
WAUSEON*       FAIR      77  57  50 NW8       29.95S
DEFIANCE       PTSUNNY   80  57  45 VRB7      29.96R
FINDLAY        MOSUNNY   81  56  42 W16       29.95R
TOLEDO EXPRESS MOSUNNY   79  54  41 W13       29.94S
TOLEDO METCALF MOSUNNY   81  55  40 W14       29.94S
LIMA           PTSUNNY   77  57  50 W8G17     29.98R

$$
AND FOR LAKE MICHIGAN COASTAL AND OPEN LAKE BUOY OBSERVATIONS

STATION/POSITION TEMP    WIND        PRES    VSBY  WAVE
                 AIR SEA DIR/SP/G                  HT/PER
                 (F)     (DEG/KT/KT) (MB)    (MI)  (FT/S)
CALUMET HARBOR    76      60/  8/ 10   N/A
MICHIGAN CITY     76     350/  4/  5   N/A
BURNS HARBOR      76      40/  6/  7 1015.2S
SAINT JOSEPH      79     260/  5/  7 1015.2S
4 MI NW BRIDGMAN  75 75  280/  2/  4   N/A           1
MICHIGAN CITY     76 76   90/  2/  4   N/A           1
MICHIGAN CITY CG  76 75   70/  4       N/A       6   1

$$
&&


USA.gov is the U.S. government's official web portal to all federal, state and local government web resources and services.